Regional Weather Roundup
Issued by NWS

Home | Current Version | Previous Version | Graphics & Text | Print | Product List | Glossary Off
Versions: 1 2 3 4 5 6 7 8 9 10 11 12 13 14 15 16 17 18 19 20 21 22 23 24 25 26 27 28 29 30 31 32 33 34 35 36 37 38 39 40 41 42 43 44 45 46 47 48 49 50

000
ASUS43 KIND 031809
RWRIN

WEATHER ROUNDUP FOR INDIANA
NATIONAL WEATHER SERVICE INDIANAPOLIS IN
200 PM EDT MON AUG 03 2015

NOTE: "FAIR" INDICATES FEW OR NO CLOUDS BELOW 12,000 FEET WITH NO
SIGNIFICANT WEATHER AND/OR OBSTRUCTIONS TO VISIBILITY.

* - STATION DOES NOT REPORT WEATHER SUCH AS PRECIPITATION OR FOG.

+ - STATION NOT QUALITY CONTROLLED BY THE NATIONAL WEATHER SERVICE.
    USE DATA WITH CAUTION...ESPECIALLY DEWPOINT AND RELATIVE
    HUMIDITY OBSERVATIONS.

INZ001>003-010>013-019-020-031900-
NORTHWEST INDIANA

CITY           SKY/WX    TMP DP  RH WIND       PRES   REMARKS
GARY /AIRPORT/ MOSUNNY   77  59  53 N12       29.87R
KNOX *+        SUNNY     79  59  50 NW12      29.85S
LA PORTE +     SUNNY     78  61  55 NW9       29.87S
MICHIGAN CITY+ SUNNY     73  59  60 N8        29.87S
MONTICELLO +   MOSUNNY   81  68  64 NW10      29.85S
6HR MIN TEMP:  66; 6HR MAX TEMP:  81;

RENSSELAER +   PTSUNNY   81  63  54 W7        29.86S
VALPARAISO     SUNNY     78  60  53 N9        29.87S
6HR MIN TEMP:  65; 6HR MAX TEMP:  79;


$$

LMZ046-743>745-031900-
SOUTHERN LAKE MICHIGAN

STATION/POSITION TIME  TEMP    WIND        PRES    WAVE
                       AIR SEA DIR/SP/G            HT
                 (UTC) (F)     (DEG/KT/KT) (MB)    (FT)
BURNS HARBOR     1700   71     360/  7/  9 1011.9S
MICHIGAN CITY    1700   72     310/  9/ 11   N/A
5NW MICH CITY    1800   71 74  360/ 10/ 12   N/A     3

$$

INZ004-005-014>016-021>024-031900-
NORTH CENTRAL INDIANA

CITY           SKY/WX    TMP DP  RH WIND       PRES   REMARKS
ELKHART        MOSUNNY   79  55  44 NW15G21   29.85S
GOSHEN         MOSUNNY   79  65  62 NW13      29.83F
6HR MIN TEMP:  65; 6HR MAX TEMP:  80;

LOGANSPORT +   SUNNY     81  59  47 NW6       29.86S
PERU/GRISSOM   SUNNY     81  64  56 W7        29.84S
6HR MIN TEMP:  67; 6HR MAX TEMP:  81;

ROCHESTER +    MOSUNNY   81  64  57 NW9       29.85S
SOUTH BEND     SUNNY     79  60  52 NW13      29.86R
6HR MIN TEMP:  65; 6HR MAX TEMP:  80;

WARSAW +       PTSUNNY   79  64  61 NW12      29.84S

$$

INZ006>009-017-018-025>027-031900-
NORTHEAST INDIANA

CITY           SKY/WX    TMP DP  RH WIND       PRES   REMARKS
ANGOLA *+      PTSUNNY   82  66  57 W10       29.83S
AUBURN +       MOSUNNY   81  63  54 W12       29.84F
FORT WAYNE     MOSUNNY   81  66  60 W9        29.84F
6HR MIN TEMP:  65; 6HR MAX TEMP:  81;

HUNTINGTON +   MOSUNNY   80  65  61 SW8       29.84S
6HR MIN TEMP:  65; 6HR MAX TEMP:  80;


$$

INZ028-029-035-036-043>045-051>053-031900-
WEST CENTRAL INDIANA

CITY           SKY/WX    TMP DP  RH WIND       PRES   REMARKS
CRAWFORDSVL +  PTSUNNY   82  66  59 W8          N/A
6HR MIN TEMP:  70; 6HR MAX TEMP:  83; 6HR PCP:  0.01;

GREENCASTLE +  MOSUNNY   84  64  51 W6        29.86S
LAFAYETTE      SUNNY     83  65  54 NW9G16    29.85R
6HR MIN TEMP:  68; 6HR MAX TEMP:  83;

TERRE HAUTE    MOSUNNY   88  68  51 W14       29.86R
6HR MIN TEMP:  74; 6HR MAX TEMP:  89;


$$

INZ030>032-037>040-046>048-054>057-064-065-031900-
CENTRAL INDIANA

CITY           SKY/WX    TMP DP  RH WIND       PRES   REMARKS
COLUMBUS       MOSUNNY   84  64  51 S12       29.87S
FISHERS *+     PTSUNNY   84  73  70 W12       29.84S
FRANKFORT +    MOSUNNY   83  70  64 W10       29.87R
                                      6HR PCP:  0.05;

GREENWOOD *+   PTSUNNY   84  70  61 SW8       29.86S
INDIANAPOLIS   PTSUNNY   87  69  54 W13G21    29.83F
6HR MIN TEMP:  73; 6HR MAX TEMP:  87;

-EAGLE CREEK   PTSUNNY   85  67  54 W10G20    29.84S
6HR MIN TEMP:  70; 6HR MAX TEMP:  86;

KOKOMO *+      SUNNY     82  66  57 NW12      29.84S
6HR MIN TEMP:  66; 6HR MAX TEMP:  82;

MARION +       PTSUNNY   80  70  71 NW10      29.85S
MT COMFORT *+  MOSUNNY   82  72  69 S9        29.85S
SHELBYVILLE    SUNNY     84  70  62 S13       29.85F
6HR MIN TEMP:  69; 6HR MAX TEMP:  84;

ZIONSVILLE +   PTSUNNY   85  69  59 W13       29.85F
6HR MIN TEMP:  68; 6HR MAX TEMP:  85;


$$

INZ033-034-041-042-049-050-058-059-031900-
EAST CENTRAL INDIANA

CITY           SKY/WX    TMP DP  RH WIND       PRES   REMARKS
MUNCIE         MOSUNNY   78  70  76 S10       29.84F
6HR MIN TEMP:  64; 6HR MAX TEMP:  79;


$$

INZ060-061-067>069-081>083-085>088-031900-
SOUTHWEST INDIANA

CITY           SKY/WX    TMP DP  RH WIND       PRES   REMARKS
EVANSVILLE     MOSUNNY   92  67  43 W8        29.89S HX  95
6HR MIN TEMP:  74; 6HR MAX TEMP:  93;

HUNTINGBURG *+ SUNNY     90  72  55 SW9       29.88F HX  96
6HR MIN TEMP:  72; 6HR MAX TEMP:  90;

WASHINGTON +   SUNNY     88  64  44 W10       29.87S
6HR MIN TEMP:  75; 6HR MAX TEMP:  88;


$$

INZ062-063-066-070>080-084-089>092-031900-
SOUTH CENTRAL AND SOUTHEAST INDIANA

CITY           SKY/WX    TMP DP  RH WIND       PRES   REMARKS
BLOOMINGTON    PTSUNNY   85  70  60 W9        29.87S
6HR MIN TEMP:  74; 6HR MAX TEMP:  87;

MADISON *+     SUNNY     82  63  51 S12       29.90F
NORTH VERNON + SUNNY     84  66  54 S9        29.88F
SEYMOUR +      SUNNY     86  68  54 SW8       29.87F

$$



USA.gov is the U.S. government's official web portal to all federal, state and local government web resources and services.